アトラス彗星

C/2017 D3 ( ATLAS )

English version
Home page
Updated on October 22, 2018

---------------------------------------------------------------------

・ プロフィール

発見日 2017年2月23日
発見光度 18.0等
発見者 Asteroid Terrestrial-impact Last Alert System (ATLAS) Team

・ 写真集

・ 軌道要素

Epoch 2017 May 7.0 TT = JDT 2457880.5
T 2017 Apr. 26.86961 TT                                 MPCW
q   4.9713517            (2000.0)            P               Q
z  -0.0004262      Peri.  340.77250     -0.91588997     -0.39040322
 +/-0.0000010      Node   186.60252     -0.16806197     +0.16152801
e   1.0021188      Incl.  125.64428     -0.36455554     +0.90636308
From 456 observations 2017 Feb. 10-2018 July 13, mean residual 0".5.

・ 光度変化

        m1 = 3.0 + 5 logΔ + 15.0 log r(t - 200)

---------------------------------------------------------------------

軌道要素はM.P.E.C. 2018-S50に掲載されたものです。
光度グラフはComet for Windowsで作成したものです。

---------------------------------------------------------------------

Copyright(C) Seiichi Yoshida (comet@aerith.net). All rights reserved.